Weather History for Munising, MI

Change the Weather History Date:

Tuesday, March 26, 2013

  Actual Average (KISQ) Record (KISQ)
Temperature  
Mean Temperature 35 °F -  
Max Temperature 37 °F 37 °F 68 °F (2007)
Min Temperature 33 °F 21 °F -9 °F (1975)
Degree Days  
Heating Degree Days 30    
Moisture  
Dew Point 28 °F    
Average Humidity 76    
Maximum Humidity 82    
Minimum Humidity 70    
Precipitation  
Precipitation 0.00 in - - ()
Sea Level Pressure  
Sea Level Pressure 30.14 in    
Wind  
Wind Speed 12 mph (NNW)    
Max Wind Speed 21 mph    
Max Gust Speed 26 mph    
Averages and records for this station are not official NWS values.
T = Trace of Precipitation, MM = Missing Value Source: NWS Daily Summary

Daily Weather History Graph

Daily Weather History Graph

Search for Another Location

Airport:

Trip Planner

Search our weather history database for the weather conditions in past years. The results will help you decide how hot, cold, wet, or windy it might be!

Date:

Astronomy

Mar. 26, 2013 Rise Set
Actual Time 7:37 AM EDT 8:07 PM EDT
Civil Twilight 7:07 AM EDT 8:38 PM EDT
Nautical Twilight 6:31 AM EDT 9:13 PM EDT
Astronomical Twilight 5:54 AM EDT 9:51 PM EDT
Moon 7:45 PM EDT (3/26) 6:54 AM EDT (3/26)
Length of Visible Light 13h 30m
Length of Day
12h 30m
Waxing Gibbous, 99% of the Moon is Illuminated
Mar 26
Waxing Gibbous
Mar 27
Full
Apr 3
Last Quarter
Apr 10
New
Apr 18
First Quarter

Hourly Weather History & Observations

Time (EDT) Temp. Windchill Dew Point Humidity Pressure Visibility Wind Dir Wind Speed Gust Speed Precip Events Conditions
12:56 AM 35.1 °F 26.4 °F 28.0 °F 76% 30.08 in - North 12.7 mph - N/A   Unknown
1:56 AM 35.1 °F 27.4 °F 28.0 °F 76% 30.09 in - North 10.4 mph - N/A   Unknown
2:56 AM 34.0 °F 25.5 °F 28.0 °F 79% 30.09 in - North 11.5 mph - N/A   Unknown
3:56 AM 34.0 °F 25.5 °F 28.0 °F 79% 30.08 in - North 11.5 mph - N/A   Unknown
4:56 AM 34.0 °F 25.5 °F 28.0 °F 79% 30.08 in - North 11.5 mph - N/A   Unknown
5:56 AM 34.0 °F 25.5 °F 28.0 °F 79% 30.08 in - North 11.5 mph - N/A   Unknown
6:56 AM 34.0 °F 27.2 °F 28.0 °F 79% 30.10 in - NNW 8.1 mph - N/A   Unknown
7:56 AM 34.0 °F 28.0 °F 28.0 °F 79% 30.11 in - NNW 6.9 mph - N/A   Unknown
8:56 AM 34.0 °F 25.5 °F 28.9 °F 82% 30.13 in - North 11.5 mph - N/A   Unknown
9:56 AM 35.1 °F 27.9 °F 28.9 °F 78% 30.14 in - North 9.2 mph - N/A   Unknown
10:56 AM 35.1 °F 28.6 °F 28.9 °F 78% 30.16 in - North 8.1 mph - N/A   Unknown
11:56 AM 37.0 °F 29.8 °F 28.9 °F 73% 30.17 in - NNE 10.4 mph - N/A   Unknown
12:56 PM 36.0 °F 28.0 °F 28.0 °F 73% 30.17 in - North 11.5 mph - N/A   Unknown
1:56 PM 36.0 °F 27.5 °F 28.0 °F 73% 30.17 in - NNW 12.7 mph 23.0 mph N/A   Unknown
2:56 PM 37.0 °F 26.4 °F 28.0 °F 70% 30.16 in - NNW 20.7 mph 26.5 mph N/A   Unknown
3:56 PM 36.0 °F 25.0 °F 28.0 °F 73% 30.16 in - NNW 20.7 mph 26.5 mph N/A   Unknown
4:56 PM 36.0 °F 26.0 °F 28.0 °F 73% 30.16 in - NW 17.3 mph - N/A   Unknown
5:56 PM 34.0 °F 23.4 °F 28.0 °F 79% 30.16 in - NNW 17.3 mph 24.2 mph N/A   Unknown
6:56 PM 34.0 °F 24.2 °F 28.0 °F 79% 30.17 in - NNW 15.0 mph - N/A   Unknown
7:56 PM 34.0 °F 26.6 °F 26.1 °F 73% 30.18 in - NNW 9.2 mph - N/A   Unknown
8:56 PM 33.1 °F 27.7 °F 26.1 °F 75% 30.17 in - NNW 5.8 mph - N/A   Unknown
9:56 PM 33.1 °F 25.5 °F 26.1 °F 75% 30.18 in - NW 9.2 mph - N/A   Unknown
10:56 PM 33.1 °F 23.4 °F 26.1 °F 75% 30.18 in - NW 13.8 mph - N/A   Unknown
11:56 PM 33.1 °F 23.4 °F 26.1 °F 75% 30.17 in - NW 13.8 mph 21.9 mph N/A   Unknown